Location: Friaudour
(46.0460°N, 1.2873°E)
Time: 08:53:08
(UTC+00:00)

Cosmos 1066 Rocket - Pass Details

Date: 14 July 2020
Orbit: 799 x 894 km, 81.2° (Epoch: 14 August)

Event Time Altitude Azimuth Distance (km) Brightness Sun altitude
Rises 02:47:02 0° 346° (NNW) 3,513 8.0 -12.6°
Reaches altitude 10° 02:49:30 10° 344° (NNW) 2,573 7.2 -12.3°
Maximum altitude 02:55:19 66° 263° (W) 975 4.3 -11.6°
Drops below altitude 10° 03:01:04 10° 183° (S) 2,546 6.2 -11.0°
Enters shadow 03:02:14 - 182° (S) 2,988 6.6 -10.8°
